Volver al catálogo

COSMOS 1317 DEB

LostHEO
NORAD 35509·DEBRIS·🇷🇺 Russia

Lanzado Oct 31, 1981 desde Plesetsk Cosmodrome

Loading…

Próximos Pases (próximas 24 horas)

TLE

ObsoletoSource: Space-Track

Época: Feb 19, 2011, 15:10 UTC

1 35509U 81108J   11050.63253324 -.00000147  00000-0  10000-3 0  9992
2 35509  70.1526 347.0114 5382548 164.8594 221.8831  1.99648545 17720

Sigue COSMOS 1317 DEB en tiempo real con AllMySat

Download on the App Store